Flight Track Log - Related Links

Times and Time Zones

All times are in EDT time to prevent confusion due to time zone crossing. See the FLG3861 flight status page for this flight to view local times or setup timezone preferences in your user account.

Time Position Orientation Groundspeed Altitude Reporting Facility
EDT Latitude Longitude Course Direction KTS MPH feet Rate Location/Type
09:45PM 42.2217 -83.3553 23° Northeast 143 165 1,200  Level Cleveland Center
09:46PM 42.2656 -83.3303 23° Northeast 193 222 3,300 1,974 Climbing Cleveland Center
09:47PM 42.2753 -83.3217 33° Northeast 193 222 3,700 1,900 Climbing Cleveland Center
09:47PM 42.3253 -83.2881 26° Northeast 258 297 5,200 2,066 Climbing Cleveland Center
09:48PM 42.3358 -83.2761 40° Northeast 248 285 5,800 2,945 Climbing Cleveland Center
09:48PM 42.3586 -83.2108 65° Northeast 280 322 7,900 2,806 Climbing Cleveland Center
09:49PM 42.3581 -83.1800 91° East 281 323 8,700 2,000 Climbing Cleveland Center
09:50PM 42.3592 -83.0708 89° East 285 328 10,700 1,610 Climbing Cleveland Center
09:51PM 42.3611 -82.9394 89° East 339 390 12,000 1,610 Climbing Cleveland Center
09:52PM 42.3631 -82.8039 89° East 356 410 14,000 1,756 Climbing Cleveland Center
09:53PM 42.3644 -82.6650 89° East 366 421 15,600 1,645 Climbing Cleveland Center
09:54PM 42.3664 -82.4947 89° East 376 433 17,400 1,463 Climbing Cleveland Center
09:55PM 42.3644 -82.3519 91° East 380 437 18,600 1,122 Climbing Cleveland Center
09:56PM 42.3578 -82.2039 93° East 391 450 19,700 1,122 Climbing Cleveland Center
09:57PM 42.3503 -82.0417 94° East 400 460 20,900 1,073 Climbing Cleveland Center
09:58PM 42.3444 -81.8869 93° East 408 470 21,900 927 Climbing Cleveland Center
09:59PM 42.3364 -81.7322 94° East 409 471 22,800 829 Climbing Cleveland Center
10:00PM 42.3294 -81.5719 93° East 420 483 23,600 780 Climbing Cleveland Center
10:01PM 42.3219 -81.4117 94° East 423 487 24,400 829 Climbing Cleveland Center
10:02PM 42.3133 -81.2419 94° East 426 490 25,300 732 Climbing Cleveland Center
10:03PM 42.3050 -81.0794 94° East 426 490 25,900 537 Climbing Cleveland Center
10:04PM 42.2978 -80.9281 94° East 437 503 26,400 488 Climbing Cleveland Center
10:05PM 42.2883 -80.7617 94° East 442 509 26,900 293 Climbing Cleveland Center
10:06PM 42.2794 -80.5953 94° East 444 511 27,000 48 Climbing Cleveland Center
10:07PM 42.2700 -80.4208 94° East 465 535 27,000  Level Cleveland Center
10:08PM 42.2719 -80.2083 89° East 469 540 27,000  Level Cleveland Center
10:09PM 42.2719 -80.0369 90° East 473 544 27,000  Level Cleveland Center
10:10PM 42.2728 -79.8725 90° East 478 550 27,000  Level Cleveland Center
10:11PM 42.2719 -79.6600 90° East 476 548 27,000  Level Cleveland Center
10:12PM 42.2719 -79.4814 90° East 478 550 27,000  Level Cleveland Center
10:13PM 42.2714 -79.3036 90° East 478 550 27,000  Level Cleveland Center
10:14PM 42.2700 -79.1256 91° East 477 549 27,000  Level Cleveland Center
10:15PM 42.2683 -78.9489 91° East 474 545 27,000  Level Cleveland Center
10:16PM 42.2669 -78.7597 91° East 472 543 27,000  Level Cleveland Center
10:17PM 42.2656 -78.5828 91° East 473 544 27,000  Level Cleveland Center
10:18PM 42.2642 -78.4075 91° East 471 542 27,000  Level Cleveland Center
10:19PM 42.2611 -78.2314 91° East 473 544 27,000 -683 Level Cleveland Center
10:20PM 42.2594 -78.0583 91° East 467 537 25,600 -1,561 Descending Cleveland Center
10:21PM 42.2564 -77.8561 91° East 457 526 23,800 -1,869 Descending Cleveland Center
10:22PM 42.2539 -77.6900 91° East 450 518 21,800 -2,000 Descending Cleveland Center
10:23PM 42.2508 -77.5242 91° East 449 517 19,700 -1,854 Descending Cleveland Center
10:24PM 42.2475 -77.3669 92° East 431 496 18,000 -1,869 Descending Cleveland Center
10:26PM 42.2442 -77.2181 92° East 406 467 15,900 -1,475 Descending Cleveland Center
10:27PM 42.2394 -77.0675 92° East 400 460 15,000 -1,190 Descending New York Center
10:28PM 42.2369 -76.9186 91° East 395 455 13,500 -1,800 Descending New York Center
10:29PM 42.2317 -76.7753 93° East 385 443 11,400 -1,650 Descending New York Center
10:30PM 42.2261 -76.6375 93° East 364 419 10,200 -1,150 Descending New York Center
10:31PM 42.1872 -76.5417 119° Southeast 312 359 9,100 -700 Descending New York Center
10:32PM 42.1458 -76.4486 121° Southeast 295 339 8,800 -850 Descending New York Center
10:33PM 42.1086 -76.3558 118° Southeast 289 333 7,400 -1,350 Descending New York Center
10:34PM 42.0817 -76.2614 111° Southeast 276 318 6,100 -1,200 Descending New York Center
10:35PM 42.0819 -76.1636 90° East 256 295 5,000 -950 Descending New York Center
10:36PM 42.0906 -76.0667 83° East 256 295 4,200 -550 Descending New York Center
10:37PM 42.1003 -75.9836 81° East 244 281 3,900 -500 Descending New York Center
10:38PM 42.1256 -75.9325 56° Northeast 179 206 3,200 -700 Descending New York Center
10:39PM 42.1644 -75.9467 345° North 126 145 2,500 -550 Descending New York Center
10:40PM 42.1933 -75.9544 349° North 111 128 2,100 -400 Descending New York Center

Login

Don't have an account? Register now (free) for customized features, flight alerts, and more!